Stündliche Wetter Abdulmambetovo

Heute, 17 Juni, Donnerstag

Zeit Temperatur Niederschläge Wind Luftdruck Luftfeuchtigkeit
00:00 +20°C° 0 mm 1 m/S 725 mmHg 63%
01:00 +19°C° 0 mm 1 m/S 724 mmHg 64%
02:00 +19°C° 0 mm 1 m/S 724 mmHg 65%
03:00 +19°C° 0 mm 1 m/S 724 mmHg 66%
04:00 +19°C° 0 mm 1 m/S 723 mmHg 67%
05:00 +21°C° 0 mm 1 m/S 723 mmHg 63%
06:00 +22°C° 0 mm 1 m/S 723 mmHg 60%
07:00 +24°C° 0 mm 2 m/S 722 mmHg 57%
08:00 +25°C° 0 mm 2 m/S 722 mmHg 51%
09:00 +27°C° 0 mm 3 m/S 722 mmHg 46%
10:00 +29°C° 0 mm 4 m/S 722 mmHg 40%
11:00 +29°C° 0 mm 4 m/S 722 mmHg 39%
12:00 +30°C° 0 mm 5 m/S 722 mmHg 39%
13:00 +32°C° 0 mm 5 m/S 721 mmHg 38%
14:00 +30°C° 0.1 mm 6 m/S 721 mmHg 44%
15:00 +29°C° 0.1 mm 7 m/S 721 mmHg 50%
16:00 +27°C° 0.1 mm 8 m/S 721 mmHg 56%
17:00 +26°C° 0 mm 8 m/S 721 mmHg 63%
18:00 +23°C° 0 mm 8 m/S 721 mmHg 71%
19:00 +21°C° 0 mm 8 m/S 721 mmHg 78%
20:00 +20°C° 0 mm 7 m/S 722 mmHg 78%
21:00 +19°C° 0 mm 6 m/S 723 mmHg 77%
22:00 +16°C° 0 mm 6 m/S 723 mmHg 77%
23:00 +15°C° 0 mm 5 m/S 723 mmHg 80%

Morgen, 18 Juni, Freitag

Zeit Temperatur Niederschläge Wind Luftdruck Luftfeuchtigkeit
00:00 +14°C° 0 mm 4 m/S 723 mmHg 82%
01:00 +13°C° 0 mm 3 m/S 723 mmHg 85%
02:00 +12°C° 0 mm 3 m/S 723 mmHg 84%
03:00 +12°C° 0 mm 3 m/S 724 mmHg 83%
04:00 +11°C° 0 mm 3 m/S 724 mmHg 82%
05:00 +13°C° 0 mm 4 m/S 724 mmHg 74%
06:00 +14°C° 0 mm 4 m/S 725 mmHg 66%
07:00 +16°C° 0 mm 5 m/S 725 mmHg 59%
08:00 +17°C° 0 mm 5 m/S 726 mmHg 53%
09:00 +19°C° 0 mm 6 m/S 726 mmHg 46%
10:00 +20°C° 0 mm 7 m/S 726 mmHg 40%
11:00 +20°C° 0 mm 6 m/S 726 mmHg 38%
12:00 +21°C° 0 mm 6 m/S 727 mmHg 36%
13:00 +22°C° 0 mm 6 m/S 727 mmHg 34%
14:00 +21°C° 0 mm 6 m/S 727 mmHg 35%
15:00 +20°C° 0 mm 6 m/S 728 mmHg 37%
16:00 +20°C° 0 mm 7 m/S 728 mmHg 39%
17:00 +19°C° 0 mm 6 m/S 728 mmHg 42%
18:00 +17°C° 0 mm 5 m/S 729 mmHg 45%
19:00 +17°C° 0 mm 4 m/S 729 mmHg 48%
20:00 +15°C° 0 mm 4 m/S 729 mmHg 53%
21:00 +13°C° 0 mm 3 m/S 730 mmHg 57%
22:00 +12°C° 0 mm 2 m/S 730 mmHg 61%
23:00 +10°C° 0 mm 2 m/S 730 mmHg 63%

übermorgen, 19 Juni, Samstag

Zeit Temperatur Niederschläge Wind Luftdruck Luftfeuchtigkeit
00:00 +10°C° 0 mm 2 m/S 731 mmHg 65%
01:00 +9°C° 0 mm 2 m/S 731 mmHg 67%
02:00 +9°C° 0 mm 2 m/S 731 mmHg 69%
03:00 +9°C° 0 mm 2 m/S 731 mmHg 70%
04:00 +9°C° 0 mm 2 m/S 732 mmHg 72%
05:00 +12°C° 0 mm 2 m/S 732 mmHg 67%
06:00 +14°C° 0 mm 2 m/S 732 mmHg 62%
07:00 +16°C° 0 mm 2 m/S 732 mmHg 58%
08:00 +17°C° 0 mm 3 m/S 732 mmHg 52%
09:00 +18°C° 0 mm 3 m/S 732 mmHg 47%
10:00 +19°C° 0 mm 4 m/S 732 mmHg 42%
11:00 +20°C° 0 mm 4 m/S 732 mmHg 41%
12:00 +21°C° 0 mm 5 m/S 732 mmHg 41%
13:00 +22°C° 0 mm 5 m/S 731 mmHg 40%
14:00 +22°C° 0 mm 6 m/S 731 mmHg 42%
15:00 +22°C° 0 mm 6 m/S 731 mmHg 44%
16:00 +22°C° 0 mm 6 m/S 730 mmHg 45%
17:00 +22°C° 0 mm 6 m/S 730 mmHg 50%
18:00 +21°C° 0 mm 6 m/S 730 mmHg 54%
19:00 +20°C° 0 mm 6 m/S 730 mmHg 58%
20:00 +19°C° 0 mm 6 m/S 730 mmHg 62%
21:00 +17°C° 0 mm 6 m/S 729 mmHg 66%
22:00 +16°C° 0 mm 6 m/S 729 mmHg 69%
23:00 +16°C° 0 mm 6 m/S 729 mmHg 73%

20 Juni, Sonntag

Zeit Temperatur Niederschläge Wind Luftdruck Luftfeuchtigkeit
00:00 +16°C° 0 mm 6 m/S 729 mmHg 77%
01:00 +15°C° 0 mm 6 m/S 728 mmHg 81%
02:00 +15°C° 0 mm 5 m/S 728 mmHg 83%
03:00 +15°C° 0 mm 5 m/S 728 mmHg 86%
04:00 +15°C° 0 mm 5 m/S 728 mmHg 88%
05:00 +17°C° 0 mm 5 m/S 728 mmHg 84%
06:00 +19°C° 0 mm 6 m/S 728 mmHg 79%
07:00 +21°C° 0 mm 6 m/S 728 mmHg 74%
08:00 +22°C° 0 mm 7 m/S 728 mmHg 67%
09:00 +24°C° 0 mm 7 m/S 728 mmHg 60%
10:00 +27°C° 0 mm 7 m/S 728 mmHg 53%
11:00 +27°C° 0 mm 8 m/S 728 mmHg 52%
12:00 +28°C° 0 mm 8 m/S 727 mmHg 51%
13:00 +28°C° 0 mm 9 m/S 727 mmHg 50%
14:00 +28°C° 0 mm 9 m/S 727 mmHg 50%
15:00 +28°C° 0 mm 9 m/S 727 mmHg 50%
16:00 +28°C° 0 mm 9 m/S 727 mmHg 50%
17:00 +27°C° 0 mm 8 m/S 727 mmHg 58%
18:00 +24°C° 0 mm 7 m/S 727 mmHg 66%
19:00 +23°C° 0 mm 7 m/S 728 mmHg 73%
20:00 +21°C° 0 mm 5 m/S 728 mmHg 78%
21:00 +20°C° 0 mm 4 m/S 728 mmHg 83%
22:00 +18°C° 0 mm 3 m/S 728 mmHg 88%
23:00 +17°C° 0 mm 2 m/S 728 mmHg 87%

21 Juni, Montag

Zeit Temperatur Niederschläge Wind Luftdruck Luftfeuchtigkeit
00:00 +16°C° 0 mm 2 m/S 728 mmHg 86%
01:00 +16°C° 0 mm 2 m/S 728 mmHg 85%
02:00 +15°C° 0 mm 2 m/S 729 mmHg 84%
03:00 +14°C° 0 mm 2 m/S 729 mmHg 84%
04:00 +14°C° 0 mm 2 m/S 729 mmHg 84%
05:00 +15°C° 0 mm 2 m/S 729 mmHg 73%
06:00 +17°C° 0 mm 2 m/S 730 mmHg 63%
07:00 +19°C° 0 mm 2 m/S 730 mmHg 52%
08:00 +20°C° 0 mm 2 m/S 730 mmHg 45%
09:00 +21°C° 0 mm 3 m/S 730 mmHg 38%
10:00 +22°C° 0 mm 3 m/S 731 mmHg 32%
11:00 +24°C° 0 mm 3 m/S 730 mmHg 31%
12:00 +25°C° 0 mm 3 m/S 730 mmHg 31%
13:00 +26°C° 0 mm 3 m/S 730 mmHg 31%
14:00 +26°C° 0 mm 3 m/S 730 mmHg 32%
15:00 +27°C° 0 mm 4 m/S 730 mmHg 32%
16:00 +27°C° 0 mm 4 m/S 730 mmHg 33%
17:00 +26°C° 0 mm 4 m/S 730 mmHg 40%
18:00 +24°C° 0 mm 3 m/S 730 mmHg 46%
19:00 +22°C° 0 mm 3 m/S 730 mmHg 53%
20:00 +20°C° 0 mm 2 m/S 730 mmHg 57%
21:00 +19°C° 0 mm 1 m/S 730 mmHg 61%
22:00 +15°C° 0 mm 0 m/S 730 mmHg 65%
23:00 +16°C° 0 mm 1 m/S 730 mmHg 66%

22 Juni, Dienstag

Zeit Temperatur Niederschläge Wind Luftdruck Luftfeuchtigkeit
00:00 +16°C° 0 mm 1 m/S 730 mmHg 66%
01:00 +15°C° 0 mm 1 m/S 730 mmHg 67%
02:00 +15°C° 0 mm 1 m/S 730 mmHg 68%
03:00 +15°C° 0 mm 1 m/S 730 mmHg 68%
04:00 +15°C° 0 mm 2 m/S 730 mmHg 69%
05:00 +17°C° 0 mm 2 m/S 730 mmHg 64%
06:00 +19°C° 0 mm 2 m/S 730 mmHg 60%
07:00 +21°C° 0 mm 3 m/S 730 mmHg 56%
08:00 +22°C° 0 mm 3 m/S 730 mmHg 52%
09:00 +25°C° 0 mm 4 m/S 730 mmHg 47%
10:00 +27°C° 0 mm 5 m/S 730 mmHg 43%
11:00 +28°C° 0 mm 5 m/S 729 mmHg 42%
12:00 +28°C° 0 mm 5 m/S 729 mmHg 42%
13:00 +29°C° 0 mm 5 m/S 729 mmHg 42%
14:00 +29°C° 0 mm 5 m/S 728 mmHg 43%
15:00 +29°C° 0 mm 5 m/S 728 mmHg 44%
16:00 +29°C° 0 mm 5 m/S 728 mmHg 45%
17:00 +28°C° 0 mm 5 m/S 728 mmHg 50%
18:00 +27°C° 0 mm 5 m/S 728 mmHg 54%
19:00 +26°C° 0 mm 5 m/S 728 mmHg 59%
20:00 +23°C° 0 mm 4 m/S 728 mmHg 66%
21:00 +21°C° 0 mm 3 m/S 728 mmHg 72%
22:00 +19°C° 0 mm 2 m/S 728 mmHg 79%
23:00 +19°C° 0 mm 2 m/S 727 mmHg 81%
Mehr zeigen

Wir brauchen deine Erlaubnis

Meteoprog und unser Service Anbieter werden persönliche Daten aufbewahren, so wie Cookies, Geräte Bezeichnung oder ähnliche Technologien von deinem Gerät und Prozess, so wie Persönliche Daten Inhalte und Werbungen, genauso wie social Media und den Verkehr zu analysieren.

  • Aufbewahrung und/oder Zugang zu deiner Geräte Informationen.

    Cookies, Geräte Bezeichnung oder andere Informationen, können aufbewahrt oder Zugang zu deinem Gerät erhalten, für den Grund, der oben angegeben wird.

  • Personalisierte Werbung und Inhalte, Messungen, Einblick in das Publikum und Produkt Entwicklung.

    Werbungen und Inhalte können personalisiert werden, basierend auf ein Profil. Mehr Daten können besser personalisierte Werbungen und Inhalte hinzufügen. Werbung und Inhalte können gezeigt und gemessen werden. Einblicke über das Publikum, welche die Werbung gesehen haben und den Inhalt, können abgeleitet werden. So wie Daten können genutzt werden, um es zu verbessern oder die Benutzer Erfahrung zu verbessern das System und die Software.

Wenn du “Ich stimme zu” klickst, erlaubst du uns, die Cookies zu benutzen die Geräte Bezeichnung, den Web oder ähnliche Technologien zu benutzen. Deine Settings, können in deinem Gerät bei deinem Browser geändert werden.

Für den bestimmten Zweck, berechtigten Interessen beruhen darauf, mehr als auf den Inhalt. Du kannst mehr darüber in unseren Privaten und Cookie Politik lesen.